Content
SEND FEEDBACK

Daily
Averages
Monthly
Summary
Canada

MONTREAL, QUEBEC


Home > North America > Canada > Quebec
Elevation: 118 feet     Latitude: 45 28N     Longitude: 073 45W

WEATHER
 
SELECT A DAY
Number of Records: 201,481;   Date Range: 1/1/95 - 10/22/14
 
SHARE

PRINT THIS DATA

[ ← Previous Day ]
WEATHER ALMANAC - JANUARY 19, 2013
[ Next Day → ]
[ °C ]   °F
Weather ElementAverageHighLow
Temperature25.7 °F33.8 °F (9:00 pm)19 °F (1:00 am)
Dewpoint11.5 °F32 °F (9:00 pm) (7:00 pm)
Humidity89.2 %93 % (4:00 am)67 % (1:00 am)
Wind Speed10.4 mph18.4 mph (2:26 am)
Wind Gust23 mph (3:00 am)
Weather ElementAverage
Visibility3.5 mi
Wind DirectionSW (220.5 °)

Weather ElementTotal
Precipitation---
Heating Degree Days38.6 (Base 65)
Averaged from 54 records on January 19, 2013
WEATHER CONDITIONS BREAKOUT
WIND DIRECTION BREAKOUT
WEATHER BY HOUR - JANUARY 19, 2013
[ °C ]   °F
Local TimeTemperatureDewpointHumidityBarometerVisibilityWind DirectionWind SpeedGust SpeedPrecipitationEventsConditions
1:00 AM19.0 °F13.0 °F67 %30.12 in15.0 miSSE (160°)15.0 mphSnowLight Snow
1:00 AM19.4 °F12.2 °F74 %30.12 in15.0 miSSE (160°)16.1 mphSnowLight Snow
1:13 AM19.4 °F0.0 °F6.0 miSSE (150°)15.0 mphSnowLight Snow
1:28 AM19.4 °F0.0 °F4.0 miSSE (150°)17.3 mphSnowLight Snow
2:00 AM19.4 °F15.8 °F86 %30.09 in2.5 miSSE (150°)15.0 mphSnowLight Snow
2:26 AM19.4 °F0.0 °F1.5 miSSE (150°)18.4 mphSnowLight Snow
2:31 AM19.4 °F0.0 °F1.2 miSSE (150°)16.1 mphSnowLight Snow
3:00 AM19.4 °F15.8 °F86 %30.06 in1.5 miSSE (160°)16.1 mph23.0 mphSnowLight Snow
3:11 AM19.4 °F0.0 °F1.5 miSSE (160°)17.3 mphSnowLight Snow
3:46 AM19.4 °F0.0 °F2.5 miSSE (160°)15.0 mphSnowLight Snow
4:00 AM19.4 °F17.6 °F93 %30.01 in2.0 miSSE (160°)17.3 mphSnowLight Snow
4:33 AM19.4 °F0.0 °F1.5 miSSE (160°)16.1 mphSnowLight Snow
5:00 AM21.2 °F17.6 °F86 %29.98 in1.2 miSSE (160°)12.7 mphSnowLight Snow
6:00 AM21.2 °F19.4 °F93 %29.95 in1.2 miSSE (160°)12.7 mphSnowLight Snow
6:25 AM21.2 °F0.0 °F1.2 miSSE (160°)12.7 mphSnowLight Snow
7:00 AM22.0 °F20.0 °F90 %29.93 in1.0 miSSE (160°)15.0 mphSnowLight Snow
7:00 AM23.0 °F21.2 °F93 %29.93 in1.2 miSSE (160°)11.5 mphSnowLight Snow
7:22 AM23.0 °F0.0 °F1.0 miSouth (170°)11.5 mphSnowLight Snow
8:00 AM23.0 °F21.2 °F93 %29.92 in1.2 miSSE (160°)12.7 mphSnowLight Snow
8:28 AM24.8 °F0.0 °F1.0 miSSE (160°)12.7 mphSnowLight Snow
9:00 AM24.8 °F23.0 °F93 %29.91 in1.0 miSSE (160°)10.4 mphSnowLight Snow
10:00 AM26.6 °F24.8 °F93 %29.91 in0.8 miSSE (150°)9.2 mphSnowLight Snow
11:00 AM28.4 °F26.6 °F93 %29.89 in0.8 miSSE (160°)11.5 mphSnowLight Snow
11:45 AM28.4 °F0.0 °F0.0 mi11.5 (2013°)0.00 inLight Snow160
12:00 PM28.4 °F26.6 °F93 %29.87 in0.6 miSSE (150°)12.7 mphSnowLight Snow
12:34 PM26.6 °F0.0 °F1.0 miSSE (160°)10.4 mphSnowLight Snow
12:45 PM28.4 °F0.0 °F0.0 mi8.1 (2013°)0.00 inLight Snow160
1:00 PM28.4 °F26.6 °F93 %29.85 in0.6 miSSE (160°)8.1 mphSnowLight Snow
1:00 PM28.0 °F27.0 °F92 %29.85 in1.0 miSSE (160°)8.1 mphSnowLight Snow
1:15 PM28.4 °F0.0 °F1.0 miSSE (150°)10.4 mphSnowLight Snow
1:44 PM28.4 °F0.0 °F8.0 miSSE (150°)9.2 mphSnowLight Snow
2:00 PM28.4 °F26.6 °F93 %29.85 in8.0 miSSE (150°)9.2 mphSnowLight Snow
3:00 PM30.2 °F28.4 °F93 %29.85 in8.0 miSE (140°)9.2 mphSnowLight Snow
3:35 PM30.2 °F0.0 °F12.0 miEast (90°)3.5 mphSnowLight Snow
4:00 PM30.2 °F26.6 °F86 %29.84 in15.0 miEast (90°)2.3 mphSnowLight Snow
5:00 PM32.0 °F26.6 °F80 %29.83 in15.0 miNNE (30°)5.8 mphOvercast
5:10 PM28.4 °F0.0 °F8.0 miNNE (30°)5.8 mphSnowLight Snow
6:00 PM26.6 °F23.0 °F86 %29.84 in4.0 miNNE (20°)5.8 mphSnowLight Snow
7:00 PM27.0 °F25.0 °F87 %29.84 in4.0 miNNE (20°)6.9 mphIce Pellets
7:00 PM26.6 °F24.8 °F93 %29.84 in4.0 miNNE (20°)5.8 mphSnowLight Ice Pellets
8:00 PM30.2 °F28.4 °F93 %29.82 in4.0 miNNE (20°)6.9 mphSnowLight Snow
8:31 PM30.2 °F0.0 °F4.0 miNNE (30°)5.8 mphRain-SnowLight Snow
9:00 PM33.8 °F32.0 °F93 %29.79 in4.0 miENE (70°)5.8 mphRain-SnowLight Rain
9:48 PM28.4 °F0.0 °F2.2 miNorth (10°)5.8 mphSnowLight Snow
9:53 PM28.4 °F0.0 °F1.8 miNorth (10°)6.9 mphSnowLight Snow
10:00 PM30.2 °F28.4 °F93 %29.75 in1.8 miNNE (30°)6.9 mphSnowLight Snow
10:23 PM26.6 °F0.0 °F0.0 mi8.1 (2013°)0.00 inLight Snow20
10:38 PM26.6 °F0.0 °F1.0 miNE (40°)8.1 mphSnowLight Snow
11:00 PM26.6 °F24.8 °F93 %29.70 in1.0 miNNE (30°)8.1 mphSnowLight Snow
11:23 PM26.6 °F0.0 °F1.2 miNE (50°)9.2 mphSnowLight Snow
11:34 PM28.4 °F0.0 °F2.2 miNNE (20°)6.9 mphSnowLight Snow
11:43 PM30.2 °F0.0 °F1.0 miNNE (30°)8.1 mphSnowLight Snow
11:52 PM32.0 °F0.0 °F2.5 miNNE (20°)6.9 mphSnowLight Snow
11:55 PM32.0 °F0.0 °F5.0 miNorth (360°)6.9 mphSnowLight Snow
Hourly data recorded from CYUL, located miles away from Montreal, Quebec







STORIES FROM OUR PARTNERS